Regional Weather Roundup
Issued by NWS Memphis, TN

Home | Current Version | Previous Version | Text Only | Print | Product List | Glossary On
Versions: 1 2 3 4 5 6 7 8 9 10 11 12 13 14 15 16 17 18 19 20 21 22 23 24 25 26 27 28 29 30 31 32 33 34 35 36 37 38 39 40 41 42 43 44 45 46 47 48 49 50
000
ASUS44 KMEG 282110
RWRMEG
MEMPHIS CWA HOURLY WEATHER ROUNDUP
NATIONAL WEATHER SERVICE MEMPHIS TN
300 PM CST FRI NOV 28 2014

...WEST TENNESSEE...

CITY           SKY/WX    TMP DP  RH WIND       PRES   REMARKS
MEMPHIS INTL   MOSUNNY   56  23  27 S14G22    30.19F
NWS MEMPHIS      N/A     55 N/A N/A MISG        N/A
JACKSON        SUNNY     52  24  33 S10G16    30.19F
LEXINGTON      SUNNY     48  21  34 S12       30.20F
SAVANNAH       SUNNY     50  25  37 S7        30.22F
DYERSBURG      SUNNY    N/A N/A N/A S9        30.17F
UNION CITY     SUNNY     46  27  46 S12       30.15F
PARIS          SUNNY     46  25  42 S14       30.17F
HUNTINGDON     SUNNY     47  23  38 S8        30.19F


...EASTERN ARKANSAS...

CITY           SKY/WX    TMP DP  RH WIND       PRES   REMARKS
JONESBORO      SUNNY     53  33  46 S12G23    30.12F
WEST MEMPHIS   SUNNY     53  29  39 S17       30.17F
BATESVILLE     SUNNY     55  34  44 SW10      30.10F
NEWPORT        SUNNY     55  34  45 S24       30.13F
WALNUT RIDGE   SUNNY     52  34  50 S21       30.10F
BLYTHEVILLE    SUNNY     53  27  36 S17       30.15F
SEARCY         SUNNY     55  37  50 S12       30.14F
STUTTGART      SUNNY     55  36  47 S12       30.17F
PINE BLUFF     SUNNY     58  33  39 S15       30.16F
MONTICELLO     SUNNY     59  32  36 S10       30.18F


...NORTH MISSISSIPPI...

CITY           SKY/WX    TMP DP  RH WIND       PRES   REMARKS
TUPELO         SUNNY     51  28  41 MISG      30.26F
OXFORD         SUNNY     54  25  32 S9        30.24F
OLIVE BRANCH   SUNNY     54  28  37 S15       30.20F
TUNICA         SUNNY     54  32  43 S15       30.21F
CLARKSDALE     SUNNY     54  32  43 S14       30.22F
CORINTH        SUNNY     52  27  37 S13       30.22F
GRENADA        SUNNY     57  27  30 S8        30.24F
GREENWOOD      SUNNY     60  23  24 S9        30.24F
COLUMBUS       SUNNY     53  23  31 S6        30.28F
STARKVILLE     FAIR      54  28  37 S6        30.27F
GOLDEN TRIANGL SUNNY     52  27  37 S9        30.28F


...SOUTHEAST MISSOURI...

CITY           SKY/WX    TMP DP  RH WIND       PRES   REMARKS
WEST PLAINS    SUNNY     54  32  43 S15G21    30.01F
POPLAR BLUFF   SUNNY     49  33  54 S14       30.08F
CAPE GIRARDEAU SUNNY     47  34  60 S17G24    30.11F


...NORTHWEST ALABAMA...

CITY           SKY/WX    TMP DP  RH WIND       PRES   REMARKS
MUSCLE SHOALS  SUNNY     52  24  33 SE8       30.26F


...MIDDLE TENNESSEE...

CITY           SKY/WX    TMP DP  RH WIND       PRES   REMARKS
NASHVILLE      MOSUNNY   47  21  35 S9        30.24F
CLARKSVILLE    SUNNY     47  25  42 S9        30.19F
COLUMBIA       SUNNY     48  27  43 SE7       30.22F


...WESTERN KENTUCKY...

CITY           SKY/WX    TMP DP  RH WIND       PRES   REMARKS
PADUCAH        SUNNY     48  27  44 SW13      30.13F
FORT CAMPBELL  SUNNY     47  24  39 S9        30.19F


...CENTRAL ARKANSAS...

CITY           SKY/WX    TMP DP  RH WIND       PRES   REMARKS
LITTLE ROCK    SUNNY     59  32  36 S13       30.14F


SKY/WX REPORTED AS FAIR MEANS FEW OR NO CLOUDS BELOW
12 THOUSAND FEET.



USA.gov is the U.S. government's official web portal to all federal, state and local government web resources and services.